Weather Roundup
Issued by NWS Chicago, IL

Home | Current Version | Previous Version | Graphics & Text | Print | Product List | Glossary On
Versions: 1 2 3 4 5 6 7 8 9 10 11 12 13 14 15 16 17 18 19 20 21 22 23 24 25 26 27 28 29 30 31 32 33 34 35 36 37 38 39 40 41 42 43 44 45 46 47 48 49 50
000
NZUS59 KLOT 270200
HRRLOT

CHICAGO AREA WEATHER ROUNDUP
NATIONAL WEATHER SERVICE CHICAGO/ROMEOVILLE IL
800 PM CST THU FEB 26 2015

NOTE: "FAIR" INDICATES FEW OR NO CLOUDS BELOW 12,000 FEET WITH NO
SIGNIFICANT WEATHER AND/OR OBSTRUCTIONS TO VISIBILITY.

* THESE STATIONS ARE NOT UNDER NWS QUALITY CONTROL. THEY ALSO MAY NOT
  REPORT WEATHER SUCH AS PRECIPITATION OR FOG.

ILZ005-006-012>014-019>023-270300-
NORTHEAST ILLINOIS

CITY           SKY/WX    TMP DP  RH WIND       PRES   REMARKS
OHARE          PTCLDY     8  -6  52 NW12      30.38R WCI  -7
MIDWAY         PTCLDY    12  -3  51 NW9       30.38R WCI   0
AURORA         CLEAR     -3 -11  68 NW6       30.40R WCI -15
WAUKEGAN       CLEAR      6  -7  54 NW7       30.38R WCI  -6
DUPAGE AIRPORT CLEAR      6  -5  60 NW10      30.38R WCI  -9
WHEELING       CLEAR      8  -6  52 NW7       30.40R WCI  -3
NORTHERLY IS     N/A     14   1  56 NW6         N/A  WCI   5
$$

WIZ051-052-058>065-066-070>072-270300-
SOUTHEAST WISCONSIN

CITY           SKY/WX    TMP DP  RH WIND       PRES   REMARKS
MILWAUKEE      CLEAR      9  -6  50 NW7       30.38R WCI  -2
KENOSHA*       CLEAR      5  -7  57 NW6       30.38R WCI  -6
RACINE*        CLEAR      7  -6  55 NW7       30.40R WCI  -5
WAUKESHA       CLEAR      3  -6  66 CALM      30.38R
$$

INZ001>003-010>013-019-020-270300-
NORTHWEST INDIANA

CITY           SKY/WX    TMP DP  RH WIND       PRES   REMARKS
GARY*          PTCLDY    14  -4  44 NW9       30.37R WCI   2
MICHIGAN CITY* NOT AVBL
RENSSELAER*    NOT AVBL
$$

LMZ740>746-270300-
SOUTHERN LAKE MICHIGAN

STATION/POSITION TIME  SKY/WX   TEMP WIND        PRES    VSBY
                                AIR  DIR/SP/G
                 (UTC)          (F)  (DEG/KT/KT) (MB)    (MI)
HARRISON CRIB    0100            15  310/ 12/ 16   N/A
BURNHAM HARBOR   0200            14  310/ 10/ 13   N/A
CALUMET HARBOR   0100            14  300/  6/  9 1026.9R
BURNS HARBOR     NOT AVBL
MICHIGAN CITY    0100            15  330/ 14/ 17   N/A
$$

ABBREVIATIONS USED IN REMARKS
   TC - TEMPERATURE IN CELSIUS
  WCI - WIND CHILL INDEX
   HX - HEAT INDEX
  VSB - VISIBILITY
$$



USA.gov is the U.S. government's official web portal to all federal, state and local government web resources and services.